Location: *
(35.2348°S, 91.3916°E)
Time: 05:05:14
(UTC+00:00)

Cosmos 1241 Rocket - Pass Details

Date: 23 October 2019
Orbit: 941 x 1008 km, 65.8° (Epoch: 17 November)

Event Time Altitude Azimuth Distance (km) Brightness Sun altitude
Rises 21:27:37 0° 211° (SSW) 3,748 7.6 -18.5°
Reaches altitude 10° 21:30:13 10° 213° (SSW) 2,799 6.9 -18.1°
Maximum altitude 21:36:46 71° 294° (WNW) 1,068 4.5 -16.9°
Drops below altitude 10° 21:43:17 10° 17° (NNE) 2,779 6.8 -15.7°
Sets 21:45:51 0° 19° (NNE) 3,719 7.5 -15.3°
